Regional Weather Roundup
Issued by NWS

Home | Current Version | Previous Version | Graphics & Text | Print | Product List | Glossary Off
Versions: 1 2 3 4 5 6 7 8 9 10 11 12 13 14 15 16 17 18 19 20 21 22 23 24 25 26 27 28 29 30 31 32 33 34 35 36 37 38 39 40 41 42 43 44 45 46 47 48 49 50

000
ASUS43 KFSD 111910
RWRSD

WEATHER ROUNDUP FOR SOUTH DAKOTA
NATIONAL WEATHER SERVICE SIOUX FALLS SD
100 PM CST THU FEB 11 2016

NOTE: "FAIR" INDICATES FEW OR NO CLOUDS BELOW 12,000 FEET WITH NO
SIGNIFICANT WEATHER AND/OR OBSTRUCTIONS TO VISIBILITY.


SDZ001>005-009-010-012>017-112000-
NORTHWEST AND NORTH CENTRAL SOUTH DAKOTA

CITY           SKY/WX    TMP DP  RH WIND       PRES   REMARKS
BUFFALO          N/A     41  35  79 NW31G37   29.93R
FAITH            N/A     33  27  78 SE9       30.00F WCI  25
MOBRIDGE       LGT SNOW  26  22  84 SE9       30.06F VSB 3/4 WCI  17
$$

SDZ012>016-024>037-041>051-057-063-072>074-112000-
SOUTHWEST AND SOUTH CENTRAL SOUTH DAKOTA

CITY           SKY/WX    TMP DP  RH WIND       PRES   REMARKS
RAPID CTY ARPT SUNNY     57  25  29 NW40G52   29.99S
PIERRE         CLOUDY    29  24  82 SE10      30.06F WCI  20
CUSTER         SUNNY     48  22  35 NW15G36   30.03F
ELLSWORTH AFB  SUNNY     56  28  33 NW35G51   29.97
PHILIP         SUNNY     42  31  64 CALM      30.00F
PINE RIDGE     SUNNY     54  29  38 W8        30.03F
SPEARFISH      FAIR      50  27  40 NW18G37   30.04S
WINNER         CLOUDY    35  26  69 SE10      30.04F WCI  27
$$

SDZ004>011-016>023-039-040-112000-
NORTHEAST SOUTH DAKOTA

CITY           SKY/WX    TMP DP  RH WIND       PRES   REMARKS
ABERDEEN       LGT SNOW  21  16  81 S7        30.17F WCI  12
WATERTOWN      LGT SNOW  17  11  77 S10       30.14S WCI   5
BROOKINGS      FLURRIES  15  10  80 S13       30.15F WCI   1
SISSETON         N/A     13   8  81 S6        30.20F WCI   4
$$

SDZ017-020-022-023-036>040-048>070-112000-
SOUTHEAST SOUTH DAKOTA

CITY           SKY/WX    TMP DP  RH WIND       PRES   REMARKS
SIOUX FALLS    LGT SNOW  17  10  74 S9        30.18F WCI   6
HURON          LGT SNOW  22  18  85 S8        30.15F FOG     WCI  12
CHAMBERLAIN    CLOUDY    27  23  85 SE8       30.09F WCI  19
MITCHELL       LGT SNOW  21  18  88 S8        30.18F FOG     WCI  11
YANKTON        CLOUDY    19  16  86 SE10      30.19S WCI   8
$$

ABBREVIATIONS USED IN REMARKS
   TC - TEMPERATURE IN CELSIUS
  WCI - WIND CHILL INDEX
   HX - HEAT INDEX
  VSB - VISIBILITY




USA.gov is the U.S. government's official web portal to all federal, state and local government web resources and services.